Time,TemperatureF,DewpointF,PressureIn,WindDirection,WindDirectionDegrees,WindSpeedMPH,WindSpeedGustMPH,Humidity,HourlyPrecipIn,Conditions,Clouds,dailyrainin,SoftwareType,DateUTC
2013-03-05 00:00:00,46.9,46.4,30.03,WNW,286,7.0,9.0,98,0.00,CLR,,0.00,WeatherDisplay:10.37,2013-03-05 08:00:00,
2013-03-05 00:15:00,46.6,46.0,30.03,WNW,292,6.0,8.0,98,0.00,CLR,,0.00,WeatherDisplay:10.37,2013-03-05 08:15:00,
2013-03-05 00:30:00,46.4,45.9,30.03,West,277,5.0,8.0,98,0.00,CLR,,0.00,WeatherDisplay:10.37,2013-03-05 08:30:00,
2013-03-05 00:45:00,46.4,45.9,30.03,West,278,7.0,8.0,98,0.00,CLR,,0.00,WeatherDisplay:10.37,2013-03-05 08:45:00,
2013-03-05 01:00:00,46.8,46.2,30.03,WNW,287,7.0,8.0,98,0.00,CLR,,0.00,WeatherDisplay:10.37,2013-03-05 09:00:00,
2013-03-05 01:15:00,46.8,46.2,30.03,West,261,6.0,9.0,98,0.00,CLR,,0.00,WeatherDisplay:10.37,2013-03-05 09:15:00,
2013-03-05 01:30:00,47.5,46.9,30.03,West,274,7.0,10.0,98,0.00,CLR,,0.00,WeatherDisplay:10.37,2013-03-05 09:30:00,
2013-03-05 01:45:00,47.5,46.9,30.03,WNW,289,5.0,12.0,98,0.00,CLR,,0.00,WeatherDisplay:10.37,2013-03-05 09:45:00,
2013-03-05 02:00:00,47.7,47.1,30.03,WNW,284,9.0,12.0,98,0.00,CLR,,0.00,WeatherDisplay:10.37,2013-03-05 10:00:00,
2013-03-05 02:15:00,47.8,47.3,30.03,WNW,290,10.0,12.0,98,0.00,CLR,,0.00,WeatherDisplay:10.37,2013-03-05 10:15:00,
2013-03-05 02:30:00,47.7,47.1,30.03,West,278,8.0,12.0,98,0.00,CLR,,0.00,WeatherDisplay:10.37,2013-03-05 10:30:00,
2013-03-05 02:45:00,47.7,47.1,30.03,West,275,5.0,12.0,98,0.00,CLR,,0.00,WeatherDisplay:10.37,2013-03-05 10:45:00,
2013-03-05 03:00:00,47.6,47.1,30.03,West,276,7.0,14.0,98,0.00,CLR,,0.00,WeatherDisplay:10.37,2013-03-05 11:00:00,
2013-03-05 03:15:00,47.1,46.6,30.00,WSW,254,5.0,9.0,98,0.00,CLR,,0.00,WeatherDisplay:10.37,2013-03-05 11:15:00,
2013-03-05 03:30:00,47.1,46.6,30.00,WSW,250,7.0,9.0,98,0.00,CLR,,0.00,WeatherDisplay:10.37,2013-03-05 11:30:00,
2013-03-05 03:45:00,46.9,46.4,30.00,WSW,239,3.0,9.0,98,0.00,CLR,,0.00,WeatherDisplay:10.37,2013-03-05 11:45:00,
2013-03-05 04:00:00,47.1,46.6,30.00,WSW,243,7.0,10.0,98,0.00,CLR,,0.00,WeatherDisplay:10.37,2013-03-05 12:00:00,
2013-03-05 04:15:00,46.9,46.4,30.00,WSW,243,6.0,8.0,98,0.00,CLR,,0.00,WeatherDisplay:10.37,2013-03-05 12:15:00,
2013-03-05 04:30:00,47.1,46.6,30.03,West,260,6.0,10.0,98,0.00,CLR,,0.00,WeatherDisplay:10.37,2013-03-05 12:30:00,
2013-03-05 04:45:00,47.3,46.8,30.03,WSW,237,6.0,10.0,98,0.00,CLR,,0.00,WeatherDisplay:10.37,2013-03-05 12:45:00,
2013-03-05 05:00:00,47.3,46.8,30.00,WSW,237,8.0,10.0,98,0.00,CLR,,0.00,WeatherDisplay:10.37,2013-03-05 13:00:00,
2013-03-05 05:15:00,47.1,46.6,30.00,WSW,242,5.0,10.0,98,0.00,CLR,,0.00,WeatherDisplay:10.37,2013-03-05 13:15:00,
2013-03-05 05:30:00,47.1,46.6,30.00,SW,221,3.0,10.0,98,0.00,CLR,,0.00,WeatherDisplay:10.37,2013-03-05 13:30:00,
2013-03-05 05:45:00,46.8,46.2,30.00,SSW,213,3.0,8.0,98,0.00,CLR,,0.00,WeatherDisplay:10.37,2013-03-05 13:45:00,
2013-03-05 06:00:00,46.6,46.0,30.00,South,174,3.0,7.0,98,0.00,CLR,,0.00,WeatherDisplay:10.37,2013-03-05 14:00:00,
2013-03-05 06:15:00,46.4,45.9,30.03,SSW,207,1.0,6.0,98,0.00,CLR,,0.00,WeatherDisplay:10.37,2013-03-05 14:15:00,
2013-03-05 06:30:00,46.2,45.7,30.00,SSE,157,3.0,6.0,98,0.00,CLR,,0.00,WeatherDisplay:10.37,2013-03-05 14:30:00,
2013-03-05 06:45:00,46.0,45.5,30.03,SE,136,3.0,6.0,98,0.00,CLR,,0.00,WeatherDisplay:10.37,2013-03-05 14:45:00,
2013-03-05 07:00:00,45.7,45.1,30.00,SE,139,3.0,7.0,98,0.00,CLR,,0.00,WeatherDisplay:10.37,2013-03-05 15:00:00,
2013-03-05 07:15:00,46.4,45.9,30.00,SE,141,6.0,7.0,98,0.00,CLR,,0.00,WeatherDisplay:10.37,2013-03-05 15:15:00,
2013-03-05 07:30:00,47.3,46.8,30.00,SE,139,6.0,8.0,98,0.00,CLR,,0.00,WeatherDisplay:10.37,2013-03-05 15:30:00,
2013-03-05 07:45:00,47.5,46.9,30.00,SE,129,5.0,7.0,98,0.00,CLR,,0.00,WeatherDisplay:10.37,2013-03-05 15:45:00,
2013-03-05 08:00:00,48.6,48.0,30.00,SSE,156,6.0,7.0,98,0.00,CLR,,0.00,WeatherDisplay:10.37,2013-03-05 16:00:00,
2013-03-05 08:15:00,49.4,48.9,30.00,SSW,199,5.0,8.0,98,0.00,CLR,,0.00,WeatherDisplay:10.37,2013-03-05 16:15:00,
2013-03-05 08:30:00,50.0,49.5,30.00,SSW,194,5.0,10.0,98,0.00,CLR,,0.00,WeatherDisplay:10.37,2013-03-05 16:30:00,
2013-03-05 08:45:00,50.7,49.9,30.00,SSW,192,6.0,10.0,97,0.00,CLR,,0.00,WeatherDisplay:10.37,2013-03-05 16:45:00,
2013-03-05 09:00:00,51.6,50.5,30.03,SSW,196,8.0,10.0,96,0.00,CLR,,0.00,WeatherDisplay:10.37,2013-03-05 17:00:00,
2013-03-05 09:15:00,52.0,50.1,30.00,SSW,198,10.0,16.0,93,0.00,CLR,,0.00,WeatherDisplay:10.37,2013-03-05 17:15:00,
2013-03-05 09:30:00,52.7,50.7,30.00,SSW,200,7.0,14.0,93,0.00,CLR,,0.00,WeatherDisplay:10.37,2013-03-05 17:30:00,
2013-03-05 09:45:00,53.1,50.5,30.00,SSW,199,10.0,14.0,91,0.00,CLR,,0.00,WeatherDisplay:10.37,2013-03-05 17:45:00,
2013-03-05 10:00:00,53.4,50.6,30.00,South,190,10.0,15.0,90,0.00,CLR,,0.00,WeatherDisplay:10.37,2013-03-05 18:00:00,
2013-03-05 10:15:00,54.0,51.1,30.00,SSW,192,10.0,14.0,90,0.00,CLR,,0.00,WeatherDisplay:10.37,2013-03-05 18:15:00,
2013-03-05 10:30:00,54.7,51.8,30.00,SSW,211,9.0,17.0,90,0.00,CLR,,0.00,WeatherDisplay:10.37,2013-03-05 18:30:00,
2013-03-05 10:45:00,55.8,51.9,30.00,SSW,193,9.0,15.0,87,0.00,CLR,,0.00,WeatherDisplay:10.37,2013-03-05 18:45:00,
2013-03-05 11:00:00,54.3,51.4,30.00,SSW,195,12.0,19.0,90,0.00,CLR,,0.00,WeatherDisplay:10.37,2013-03-05 19:00:00,
2013-03-05 11:15:00,54.8,51.9,30.00,SSW,195,12.0,17.0,90,0.00,CLR,,0.00,WeatherDisplay:10.37,2013-03-05 19:15:00,
2013-03-05 11:30:00,55.4,51.9,30.00,SSW,200,10.0,16.0,88,0.00,CLR,,0.00,WeatherDisplay:10.37,2013-03-05 19:30:00,
2013-03-05 11:45:00,56.6,52.7,30.00,SSW,203,15.0,18.0,87,0.00,CLR,,0.00,WeatherDisplay:10.37,2013-03-05 19:45:00,
2013-03-05 12:00:00,56.5,52.0,30.00,South,184,12.0,18.0,85,0.00,CLR,,0.00,WeatherDisplay:10.37,2013-03-05 20:00:00,
2013-03-05 12:15:00,56.3,51.8,30.00,South,184,12.0,20.0,85,0.00,CLR,,0.00,WeatherDisplay:10.37,2013-03-05 20:15:00,
2013-03-05 12:30:00,56.8,52.1,29.97,South,191,10.0,17.0,84,0.00,CLR,,0.00,WeatherDisplay:10.37,2013-03-05 20:30:00,
2013-03-05 12:45:00,57.9,52.5,29.97,South,188,10.0,15.0,82,0.00,CLR,,0.00,WeatherDisplay:10.37,2013-03-05 20:45:00,
2013-03-05 13:00:00,58.6,52.5,29.97,South,186,13.0,20.0,80,0.00,CLR,,0.00,WeatherDisplay:10.37,2013-03-05 21:00:00,
2013-03-05 13:15:00,58.5,51.3,29.97,South,186,9.0,18.0,77,0.00,CLR,,0.00,WeatherDisplay:10.37,2013-03-05 21:15:00,
2013-03-05 13:30:00,57.9,51.1,29.94,South,186,10.0,18.0,78,0.00,CLR,,0.00,WeatherDisplay:10.37,2013-03-05 21:30:00,
2013-03-05 13:45:00,58.6,51.4,29.94,South,191,12.0,18.0,77,0.00,CLR,,0.00,WeatherDisplay:10.37,2013-03-05 21:45:00,
2013-03-05 14:00:00,58.2,49.6,29.94,SSW,193,14.0,20.0,73,0.00,CLR,,0.00,WeatherDisplay:10.37,2013-03-05 22:00:00,
2013-03-05 14:15:00,58.1,49.5,29.94,South,188,12.0,18.0,73,0.00,CLR,,0.00,WeatherDisplay:10.37,2013-03-05 22:15:00,
2013-03-05 14:30:00,58.8,48.7,29.91,South,171,10.0,23.0,69,0.00,CLR,,0.00,WeatherDisplay:10.37,2013-03-05 22:30:00,
2013-03-05 14:45:00,59.1,48.2,29.91,South,187,13.0,16.0,67,0.00,CLR,,0.00,WeatherDisplay:10.37,2013-03-05 22:45:00,
2013-03-05 15:00:00,59.2,47.8,29.94,South,190,10.0,17.0,66,0.00,CLR,,0.00,WeatherDisplay:10.37,2013-03-05 23:00:00,
2013-03-05 15:15:00,59.5,46.9,29.91,South,185,10.0,15.0,63,0.00,CLR,,0.00,WeatherDisplay:10.37,2013-03-05 23:15:00,
2013-03-05 15:30:00,59.4,46.3,29.91,South,188,12.0,18.0,62,0.00,CLR,,0.00,WeatherDisplay:10.37,2013-03-05 23:30:00,
2013-03-05 15:45:00,58.8,46.2,29.91,SSW,192,10.0,16.0,63,0.00,CLR,,0.00,WeatherDisplay:10.37,2013-03-05 23:45:00,
2013-03-05 16:00:00,58.5,45.9,29.91,South,186,13.0,17.0,63,0.00,CLR,,0.00,WeatherDisplay:10.37,2013-03-06 00:00:00,
2013-03-05 16:15:00,57.6,45.1,29.88,SSW,200,9.0,17.0,63,0.00,CLR,,0.00,WeatherDisplay:10.37,2013-03-06 00:15:00,
2013-03-05 16:30:00,57.2,46.3,29.88,South,188,12.0,15.0,67,0.00,CLR,,0.00,WeatherDisplay:10.37,2013-03-06 00:30:00,
2013-03-05 16:45:00,56.7,46.6,29.88,South,189,13.0,15.0,69,0.00,CLR,,0.00,WeatherDisplay:10.37,2013-03-06 00:45:00,
2013-03-05 17:00:00,56.3,46.6,29.88,SSW,192,9.0,14.0,70,0.00,CLR,,0.00,WeatherDisplay:10.37,2013-03-06 01:00:00,
2013-03-05 17:15:00,54.9,46.0,29.88,SSE,160,13.0,17.0,72,0.00,CLR,,0.00,WeatherDisplay:10.37,2013-03-06 01:15:00,
2013-03-05 17:30:00,54.7,45.5,29.85,South,169,10.0,19.0,71,0.00,CLR,,0.00,WeatherDisplay:10.37,2013-03-06 01:30:00,
2013-03-05 17:45:00,54.3,45.8,29.85,South,184,12.0,17.0,73,0.00,CLR,,0.00,WeatherDisplay:10.37,2013-03-06 01:45:00,
2013-03-05 18:00:00,53.2,49.5,29.85,SSW,198,10.0,15.0,87,0.00,CLR,,0.00,WeatherDisplay:10.37,2013-03-06 02:00:00,
2013-03-05 18:15:00,52.3,50.4,29.85,South,186,12.0,17.0,93,0.00,CLR,,0.00,WeatherDisplay:10.37,2013-03-06 02:15:00,
2013-03-05 18:30:00,52.5,50.8,29.85,SSW,194,12.0,19.0,94,0.00,CLR,,0.00,WeatherDisplay:10.37,2013-03-06 02:30:00,
2013-03-05 18:45:00,52.3,51.0,29.85,South,181,15.0,23.0,95,0.00,CLR,,0.00,WeatherDisplay:10.37,2013-03-06 02:45:00,
2013-03-05 19:00:00,52.3,51.0,29.85,SSE,167,17.0,28.0,95,0.00,CLR,,0.00,WeatherDisplay:10.37,2013-03-06 03:00:00,
2013-03-05 19:15:00,52.7,50.7,29.85,South,171,12.0,23.0,93,0.00,CLR,,0.00,WeatherDisplay:10.37,2013-03-06 03:15:00,
2013-03-05 19:30:00,52.9,50.3,29.83,South,169,13.0,20.0,91,0.00,CLR,,0.00,WeatherDisplay:10.37,2013-03-06 03:30:00,
2013-03-05 19:45:00,52.9,50.3,29.83,SSE,166,9.0,17.0,91,0.04,RA,,0.04,WeatherDisplay:10.37,2013-03-06 03:45:00,
2013-03-05 20:00:00,53.1,50.2,29.83,SSE,162,9.0,20.0,90,0.00,,,0.04,WeatherDisplay:10.37,2013-03-06 04:00:00,
2013-03-05 20:15:00,53.2,50.1,29.83,SSE,163,9.0,26.0,89,0.00,,,0.04,WeatherDisplay:10.37,2013-03-06 04:15:00,
2013-03-05 20:30:00,53.3,51.0,29.83,SSE,166,12.0,23.0,92,0.00,,,0.04,WeatherDisplay:10.37,2013-03-06 04:30:00,
2013-03-05 20:45:00,52.5,52.0,29.83,SSE,164,18.0,24.0,98,0.00,CLR,,0.04,WeatherDisplay:10.37,2013-03-06 04:45:00,
2013-03-05 21:00:00,51.9,51.3,29.83,South,171,20.0,25.0,98,0.00,CLR,,0.04,WeatherDisplay:10.37,2013-03-06 05:00:00,
2013-03-05 21:15:00,51.4,50.9,29.83,South,180,15.0,26.0,98,0.00,CLR,,0.04,WeatherDisplay:10.37,2013-03-06 05:15:00,
2013-03-05 21:30:00,51.3,50.7,29.83,SSE,162,21.0,33.0,98,0.00,CLR,,0.04,WeatherDisplay:10.37,2013-03-06 05:30:00,
2013-03-05 21:45:00,50.9,50.4,29.80,SSE,163,15.0,30.0,98,0.00,CLR,,0.04,WeatherDisplay:10.37,2013-03-06 05:45:00,
2013-03-05 22:00:00,50.7,50.2,29.80,SSE,163,17.0,32.0,98,0.00,CLR,,0.04,WeatherDisplay:10.37,2013-03-06 06:00:00,
2013-03-05 22:15:00,51.0,50.5,29.83,South,188,16.0,29.0,98,0.00,CLR,,0.04,WeatherDisplay:10.37,2013-03-06 06:15:00,
2013-03-05 22:30:00,51.1,50.5,29.80,South,175,12.0,33.0,98,0.00,CLR,,0.04,WeatherDisplay:10.37,2013-03-06 06:30:00,
2013-03-05 22:45:00,51.1,50.5,29.83,South,179,17.0,39.0,98,0.00,CLR,,0.04,WeatherDisplay:10.37,2013-03-06 06:45:00,
2013-03-05 23:00:00,51.1,50.5,29.83,South,182,16.0,33.0,98,0.00,CLR,,0.04,WeatherDisplay:10.37,2013-03-06 07:00:00,
2013-03-05 23:15:00,50.7,50.2,29.83,South,179,17.0,36.0,98,0.00,CLR,,0.04,WeatherDisplay:10.37,2013-03-06 07:15:00,
2013-03-05 23:30:00,50.5,50.0,29.83,South,188,16.0,31.0,98,0.00,CLR,,0.04,WeatherDisplay:10.37,2013-03-06 07:30:00,
2013-03-05 23:45:00,50.5,50.0,29.80,South,183,20.0,35.0,98,0.00,CLR,,0.04,WeatherDisplay:10.37,2013-03-06 07:45:00,